When you browse on this site, cookies collect data to enhance your experience and personalize the content and advertising you see.
Visit our Privacy Policy to learn more. By continuing to use the site, you agree to this use of cookies and data.

Hourly Weather San Antonio

Today, 8 July, Wednesday

Time Temperature Precipitation Wind Pressure Humidity
00:00 +28°C° 0.5 mm 3 mps 741 mmHg 81%
01:00 +28°C° 0.5 mm 3 mps 741 mmHg 84%
02:00 +28°C° 0.5 mm 3 mps 741 mmHg 86%
03:00 +27°C° 0.7 mm 3 mps 741 mmHg 88%
04:00 +27°C° 0.7 mm 3 mps 741 mmHg 89%
05:00 +27°C° 0.7 mm 3 mps 741 mmHg 90%
06:00 +28°C° 0 mm 3 mps 742 mmHg 85%
07:00 +29°C° 0 mm 4 mps 742 mmHg 79%
08:00 +32°C° 0 mm 4 mps 742 mmHg 73%
09:00 +34°C° 0 mm 5 mps 742 mmHg 64%
10:00 +35°C° 0 mm 5 mps 742 mmHg 56%
11:00 +37°C° 0 mm 5 mps 742 mmHg 47%
12:00 +39°C° 0 mm 5 mps 741 mmHg 43%
13:00 +40°C° 0 mm 4 mps 740 mmHg 39%
14:00 +40°C° 0 mm 4 mps 740 mmHg 35%
15:00 +40°C° 0 mm 4 mps 740 mmHg 35%
16:00 +40°C° 0 mm 4 mps 739 mmHg 35%
17:00 +40°C° 0 mm 4 mps 739 mmHg 35%
18:00 +36°C° 0.2 mm 4 mps 739 mmHg 47%
19:00 +34°C° 0.2 mm 5 mps 740 mmHg 59%
20:00 +32°C° 0.2 mm 6 mps 740 mmHg 71%
21:00 +30°C° 0 mm 5 mps 740 mmHg 74%
22:00 +29°C° 0 mm 5 mps 741 mmHg 76%
23:00 +29°C° 0 mm 4 mps 741 mmHg 79%

Tomorrow, 9 July, Thursday

Time Temperature Precipitation Wind Pressure Humidity
00:00 +28°C° 0 mm 4 mps 741 mmHg 82%
01:00 +27°C° 0 mm 4 mps 741 mmHg 85%
02:00 +27°C° 0 mm 3 mps 740 mmHg 87%
03:00 +27°C° 0 mm 3 mps 740 mmHg 89%
04:00 +27°C° 0 mm 3 mps 740 mmHg 90%
05:00 +27°C° 0 mm 3 mps 740 mmHg 91%
06:00 +28°C° 0 mm 4 mps 741 mmHg 84%
07:00 +29°C° 0 mm 4 mps 741 mmHg 77%
08:00 +32°C° 0 mm 4 mps 741 mmHg 70%
09:00 +34°C° 0 mm 5 mps 741 mmHg 60%
10:00 +36°C° 0 mm 5 mps 741 mmHg 50%
11:00 +39°C° 0 mm 5 mps 741 mmHg 40%
12:00 +40°C° 0 mm 5 mps 741 mmHg 37%
13:00 +41°C° 0 mm 5 mps 740 mmHg 33%
14:00 +42°C° 0 mm 5 mps 740 mmHg 30%
15:00 +41°C° 0 mm 5 mps 740 mmHg 32%
16:00 +40°C° 0 mm 6 mps 740 mmHg 35%
17:00 +39°C° 0 mm 6 mps 739 mmHg 38%
18:00 +36°C° 0 mm 6 mps 740 mmHg 45%
19:00 +34°C° 0 mm 6 mps 740 mmHg 53%
20:00 +32°C° 0 mm 6 mps 741 mmHg 61%
21:00 +30°C° 0 mm 5 mps 741 mmHg 67%
22:00 +29°C° 0 mm 4 mps 742 mmHg 73%
23:00 +28°C° 0 mm 4 mps 742 mmHg 79%

Day after tomorrow, 10 July, Friday

Time Temperature Precipitation Wind Pressure Humidity
00:00 +27°C° 0 mm 3 mps 742 mmHg 82%
01:00 +27°C° 0 mm 3 mps 742 mmHg 85%
02:00 +26°C° 0 mm 3 mps 742 mmHg 89%
03:00 +26°C° 0 mm 3 mps 742 mmHg 91%
04:00 +26°C° 0 mm 2 mps 742 mmHg 93%
05:00 +26°C° 0 mm 2 mps 742 mmHg 95%
06:00 +27°C° 0 mm 3 mps 743 mmHg 88%
07:00 +29°C° 0 mm 3 mps 743 mmHg 81%
08:00 +30°C° 0 mm 4 mps 744 mmHg 74%
09:00 +33°C° 0 mm 4 mps 744 mmHg 62%
10:00 +36°C° 0 mm 4 mps 744 mmHg 50%
11:00 +40°C° 0 mm 5 mps 744 mmHg 37%
12:00 +41°C° 0 mm 5 mps 743 mmHg 34%
13:00 +42°C° 0 mm 4 mps 743 mmHg 30%
14:00 +43°C° 0 mm 4 mps 742 mmHg 26%
15:00 +43°C° 0 mm 4 mps 742 mmHg 27%
16:00 +42°C° 0 mm 4 mps 742 mmHg 28%
17:00 +42°C° 0 mm 4 mps 741 mmHg 29%
18:00 +38°C° 0 mm 4 mps 742 mmHg 39%
19:00 +36°C° 0 mm 5 mps 742 mmHg 49%
20:00 +33°C° 0 mm 5 mps 742 mmHg 59%
21:00 +32°C° 0 mm 4 mps 742 mmHg 64%
22:00 +30°C° 0 mm 4 mps 743 mmHg 69%
23:00 +29°C° 0 mm 3 mps 743 mmHg 74%

11 July, Saturday

Time Temperature Precipitation Wind Pressure Humidity
00:00 +28°C° 0 mm 3 mps 743 mmHg 78%
01:00 +28°C° 0 mm 2 mps 743 mmHg 81%
02:00 +27°C° 0 mm 2 mps 743 mmHg 84%
03:00 +27°C° 0 mm 2 mps 743 mmHg 87%
04:00 +26°C° 0 mm 2 mps 743 mmHg 90%
05:00 +26°C° 0 mm 2 mps 743 mmHg 92%
06:00 +28°C° 0 mm 3 mps 743 mmHg 80%
07:00 +30°C° 0 mm 3 mps 744 mmHg 69%
08:00 +33°C° 0 mm 4 mps 744 mmHg 57%
09:00 +35°C° 0 mm 4 mps 744 mmHg 48%
10:00 +37°C° 0 mm 3 mps 744 mmHg 40%
11:00 +39°C° 0 mm 3 mps 744 mmHg 31%
12:00 +40°C° 0 mm 3 mps 743 mmHg 28%
13:00 +42°C° 0 mm 2 mps 742 mmHg 25%
14:00 +43°C° 0 mm 2 mps 741 mmHg 22%
15:00 +42°C° 0 mm 2 mps 741 mmHg 22%
16:00 +42°C° 0 mm 1 mps 741 mmHg 22%
17:00 +42°C° 0 mm 1 mps 740 mmHg 22%
18:00 +40°C° 0 mm 1 mps 741 mmHg 26%
19:00 +36°C° 0 mm 1 mps 741 mmHg 30%
20:00 +34°C° 0 mm 1 mps 741 mmHg 33%
21:00 +32°C° 0 mm 2 mps 741 mmHg 44%
22:00 +31°C° 0 mm 2 mps 741 mmHg 55%
23:00 +30°C° 0 mm 3 mps 741 mmHg 66%

12 July, Sunday

Time Temperature Precipitation Wind Pressure Humidity
00:00 +29°C° 0 mm 3 mps 741 mmHg 69%
01:00 +29°C° 0 mm 3 mps 741 mmHg 71%
02:00 +28°C° 0 mm 3 mps 741 mmHg 73%
03:00 +28°C° 0 mm 3 mps 741 mmHg 73%
04:00 +28°C° 0 mm 3 mps 741 mmHg 74%
05:00 +27°C° 0 mm 3 mps 741 mmHg 74%
06:00 +30°C° 0 mm 3 mps 741 mmHg 64%
07:00 +33°C° 0 mm 4 mps 742 mmHg 54%
08:00 +35°C° 0 mm 4 mps 742 mmHg 44%
09:00 +37°C° 0 mm 4 mps 742 mmHg 38%
10:00 +39°C° 0 mm 3 mps 742 mmHg 32%
11:00 +42°C° 0 mm 3 mps 741 mmHg 26%
12:00 +42°C° 0 mm 2 mps 741 mmHg 23%
13:00 +43°C° 0 mm 2 mps 740 mmHg 21%
14:00 +44°C° 0 mm 1 mps 739 mmHg 19%
15:00 +44°C° 0 mm 1 mps 739 mmHg 20%
16:00 +44°C° 0 mm 1 mps 739 mmHg 20%
17:00 +43°C° 0 mm 2 mps 738 mmHg 21%
18:00 +41°C° 0 mm 2 mps 739 mmHg 23%
19:00 +39°C° 0 mm 2 mps 739 mmHg 25%
20:00 +37°C° 0 mm 2 mps 739 mmHg 27%
21:00 +36°C° 0 mm 3 mps 739 mmHg 34%
22:00 +34°C° 0 mm 3 mps 739 mmHg 41%
23:00 +33°C° 0 mm 4 mps 739 mmHg 47%

13 July, Monday

Time Temperature Precipitation Wind Pressure Humidity
00:00 +31°C° 0 mm 3 mps 739 mmHg 50%
01:00 +30°C° 0 mm 3 mps 739 mmHg 52%
02:00 +30°C° 0 mm 3 mps 739 mmHg 54%
03:00 +29°C° 0 mm 3 mps 739 mmHg 55%
04:00 +29°C° 0 mm 2 mps 740 mmHg 57%
05:00 +29°C° 0 mm 2 mps 740 mmHg 58%
06:00 +31°C° 0 mm 3 mps 740 mmHg 52%
07:00 +34°C° 0 mm 3 mps 741 mmHg 46%
08:00 +37°C° 0 mm 3 mps 741 mmHg 40%
09:00 +39°C° 0 mm 3 mps 741 mmHg 33%
10:00 +43°C° 0 mm 3 mps 741 mmHg 27%
11:00 +45°C° 0 mm 3 mps 740 mmHg 20%
12:00 +47°C° 0 mm 4 mps 740 mmHg 19%
13:00 +48°C° 0 mm 4 mps 739 mmHg 18%
14:00 +49°C° 0 mm 4 mps 739 mmHg 16%
15:00 +48°C° 0 mm 4 mps 738 mmHg 17%
16:00 +47°C° 0 mm 3 mps 738 mmHg 17%
17:00 +46°C° 0 mm 3 mps 738 mmHg 18%
18:00 +44°C° 0 mm 4 mps 738 mmHg 22%
19:00 +41°C° 0 mm 4 mps 738 mmHg 25%
20:00 +39°C° 0 mm 5 mps 738 mmHg 29%
21:00 +37°C° 0 mm 5 mps 739 mmHg 33%
22:00 +36°C° 0 mm 5 mps 739 mmHg 36%
23:00 +34°C° 0 mm 5 mps 739 mmHg 40%
Show more